Weather in Kirovo

Belarus     52°54′44″N   30°19′16″E
temp.,
°C
wind,
m/s
gust,
m/s
humid.,
%
clouds,
%
prec.,
mm/h
press.,
hPa
HPBL,
m
19 april, mon
mon1900:00+6nne4888100 0.0 1019326
03:00+6ne3689100 0.0 1020301
06:00+6ene479086 0.0 1020371
09:00+8ne46765 0.0 1020500
12:00+11ene5659100 0.1 10191507
15:00+9ene577259 0.6 1019671
18:00+11ne576462 0.6 10171125
21:00+8ene5118277 0.6 1018492
20 april, tue
tue2000:00+7ne3888100 0.0 1017481
03:00+6ne4884100 0.1 1016712
06:00+6ne5789100 0.3 1015838
09:00+7ne568197 0.4 1014688
12:00+7ne568392 0.2 1013708
15:00+7ne5682100 0.3 1012812
18:00+6nne5787100 0.1 1011651
21:00+5n4691100 0.1 1011440
21 april, wed
wed2100:00+5n4692100 0.0 1010383
03:00+5nw3593100 0.0 1009426
06:00+5nw4793100 0.1 1009773
09:00+6wnw567361 0.1 1009825
12:00+8w6863100 0.0 10091302
15:00+10wsw575788 0.1 10091584
18:00+10ssw3767100 0.1 1009380
21:00+8ssw4977100 0.1 1009231
22 april, thu
thu2200:00+7ssw498953 0.3 1010237
03:00+5sw369344 0.4 1010112
06:00+5ssw3893100 0.0 1011175
09:00+10ssw597777 0.1 1012512
12:00+14sw58647 0.1 10121233
15:00+15wsw6948100 0.4 10122206
18:00+14wsw474821 0.0 10131452
21:00+11sse387063 0.0 1014199
23 april, fri
fri2300:00+8sse4118976 0.0 1013219
03:00+8s513907 0.1 1012316
06:00+6s4109485 0.1 1011244
09:00+7wnw4488100 0.1 1012501
12:00+3nw4796100 2.0 1014393
15:00+6sw4683100 4.0 1014714
18:00+9sw5966100 0.3 10131340
21:00+5sw41079100 0.4 1014210